Location: Bosmont
(49.7318°N, 3.8587°E)
Time: 23:28:53
(UTC+00:00)

IRS-1C Rocket - Pass Details

Date: 08 February 2023
Orbit: 801 x 805 km, 98.9° (Epoch: 21 March)

Event Time Altitude Azimuth Distance (km) Brightness Sun altitude
Exits shadow 19:07:06 45° 58° (ENE) 1,084 4.4 -22.3°
Drops below altitude 10° 19:11:51 10° 355° (N) 2,390 6.6 -23.1°
Sets 19:14:16 0° 350° (N) 3,325 7.5 -23.5°
